SL-8 DEB, 1478

Orbit data source: Space-Track

SL-8 DEB, 1478 is space debris in LEO originally from a launch on Mon, 15 Mar 1965 UTC launched from the Tyuratam Missile And Space Complex (TTMTR). Debris objects in space refer to the collection of defunct objects orbiting the Earth. Examples of debris include non-operational satellites, rocket bodies, and fragments generated from explosions, collisions, or faulty payload assembly.

Loading next visibility...
Identifier
1478, 1965-020BC
Orbit
LEO
Country
Flag of CISCIS
Related business
Manufacturer
Unknown
Mission
Spacecraft
Bus & Motor
Unknown
Mass
Unknown
Launch date (UTC)
1965-03-15 (61 years ago)
Launch vehicle
Unknown
Launch site
Tyuratam Missile And Space Complex (TTMTR)
Object type
Payload
Rocket body
Debris
Shape & HBR
Unknown
Radar Cross Section
Medium (>0.1 m² and <1 m²)

Expand to show TLE details & history
Last TLE update: 20 hours ago

TLE from 20 hours ago
0 SL-8 DEB
1 01478U 65020BC  25258.13077000  .00001549  00000-0  78447-3 0  9995
2 01478  56.0762 169.2887 0597035 144.5183 219.7055 13.54162285887586
Epoch: 2025-09-15T03:08Z
TLE epoch observation values (Epoch: 2025-09-15T03:08:18.528Z)
Latitude
-0.00003°
Longitude
127.87164°
Altitude
1,409.738 km
Speed
6.985 km/s
True Right ascension
11h 17m 09s
True Declination
0° 00' 00"
Sunlit
Object was in daylight at epoch
Visualization orbit readout
Latitude
Unknown
Longitude
Unknown
Altitude
Unknown
Speed
Unknown
Apparent Right ascension
Unknown
Apparent Declination
Unknown
Sunlit
N/A
Visualization observer readout
Local Sidereal Time
15:20:48
Azimuth
Unknown
Elevation
Unknown
Doppler factor
Unknown
Orbital elements
Apogee altitude
1,500.684 km
Perigee altitude
612.902 km
Semi-major axis
7,434.93 km
Eccentricity
0.0597
Inclination
56.0762°
RAAN
169.2887°
Arg. of periapsis
144.5183°
True anomaly
215.57619°
Mean anomaly
219.7055°
Eccentric anomaly
217.61751°
Mean motion
3.38554 °/min
Orbital period
106.33 mins
BSTAR
0.00078447
Loading maneuver chart data...
Computing Atmospheric mass density...
Loading historical data...
Loading historical data...
Loading historical data...
Loading historical data...
Loading historical data...
Loading historical data...
Loading historical data...

Documentation

Showing up to 5 results
|